#timestamp,LO_Frequency,Hit 
1502859615.1,286046996.5,N
1502859635.8,286046995.3,N
1502859655.7,286046997.8,N
1502859675.5,286046999.3,N
1502859695.3,286046998.8,N
1502859715.2,286046998.6,N
1502859735.9,286047001.2,N
1502859755.7,286047000.6,N
1502859775.6,286046999.9,N
1502859795.4,286047000.0,N
1502859815.2,286047000.2,N
1502859835.0,286047000.4,N
1502859836.0,286047000.4,N
1502859855.8,286047000.9,N
1502859875.6,286047000.1,N
1502859895.4,286047001.0,N
1502859915.3,286046998.8,N
1502859935.1,286046997.3,N
1502859955.8,286046998.0,N
1502859975.7,286046994.9,P
1502859995.5,286046999.4,N
1502860015.3,286046998.8,N
1502860035.2,286046998.5,N
1502860055.0,286047001.9,N
1502860055.9,286047001.9,N
1502860075.7,286047001.4,N
1502860095.6,286047000.1,N
1502860115.4,286047000.1,N
1502860135.2,286047000.1,N
1502860155.1,286047003.9,N
1502860156.0,286047003.9,N
1502860175.8,286047003.9,N
1502860195.6,286047000.9,N
1502860215.5,286046999.3,N
1502860235.3,286046999.6,N
1502860255.1,286046997.1,N
1502860275.9,286046996.6,N
1502860295.7,286046997.8,N
1502860315.5,286046997.9,N
1502860335.3,286046995.8,N
1502860355.2,286046998.6,N
1502860375.0,286046999.3,N
1502860375.9,286046999.3,N
1502860395.7,286047000.8,N
1502860415.6,286046999.3,N
1502860435.4,286046998.8,N
1502860455.2,286046998.9,N
1502860475.1,286046999.6,N
1502860476.0,286046999.6,N
1502860495.8,286046997.0,N
1502860515.6,286046997.7,N
1502860535.5,286046995.4,N
1502860555.3,286046996.6,N
1502860575.1,286046998.9,N
1502860595.9,286046999.0,N
1502860615.7,286046999.1,N
1502860635.5,286046997.1,N
1502860655.3,286046995.8,N
1502860675.2,286046993.3,P
1502860695.0,286046995.4,N
1502860695.9,286046995.4,N
1502860715.8,286046995.2,N
1502860735.6,286046998.8,N
1502860755.4,286046999.8,N
1502860775.2,286047002.1,N
1502860795.1,286047004.0,N
1502860796.0,286047004.0,N
1502860815.8,286047005.6,N
1502860835.6,286047005.7,N
1502860855.5,286047005.3,N
1502860875.3,286047006.3,N
1502860895.1,286047006.7,N
1502860915.9,286047004.0,N
1502860935.7,286047001.7,N
1502860955.5,286047002.4,N
1502860975.4,286047000.1,N
1502860995.2,286046999.9,N
1502861015.0,286047003.6,N
1502861015.9,286047003.6,N
1502861035.8,286047004.1,N
1502861055.6,286047001.4,N
1502861075.4,286047002.1,N
1502861095.2,286046998.8,N
1502861115.1,286046997.2,N
1502861116.0,286046997.2,N
1502861135.8,286046999.3,N
1502861155.6,286046999.2,N
1502861175.5,286046997.1,N
1502861195.3,286046995.2,N
1502861215.1,286046994.5,N
1502861235.9,286046995.2,N
1502861255.7,286046995.3,N
1502861275.5,286047000.6,N
1502861295.4,286046998.8,N
1502861315.2,286047000.6,N
1502861335.0,286047000.1,N
1502861335.9,286047000.1,N
1502861355.8,286047002.5,N
1502861375.6,286047002.2,N
1502861395.4,286047002.3,N
1502861415.3,286047000.8,N
1502861435.1,286046999.8,N
1502861436.0,286046999.8,N
1502861455.8,286047003.8,N
1502861475.7,286047004.7,N
1502861495.5,286047004.4,N
1502861515.3,286047004.7,N
1502861535.1,286047005.3,N
1502861555.9,286047004.3,N
1502861575.7,286047001.4,N
1502861595.5,286047002.7,N
1502861615.4,286047001.4,N
1502861635.2,286047003.1,N
1502861655.0,286047003.4,N
1502861655.9,286047003.4,N
1502861675.8,286047005.2,N
1502861695.6,286047008.3,N
1502861715.4,286047005.0,N
1502861735.3,286047007.4,N
1502861755.1,286047008.6,N
1502861756.0,286047008.6,N
1502861775.8,286047005.2,N
1502861795.7,286047003.7,N
1502861815.5,286047003.0,N
1502861835.3,286047002.8,N
1502861855.1,286047001.3,N
1502861875.9,286047003.8,N
1502861895.7,286047003.9,N
1502861915.5,286047005.8,N
1502861935.4,286047005.3,N
1502861955.2,286047001.5,N
1502861975.0,286046999.8,N
1502861975.9,286046999.8,N
1502861995.8,286047001.1,N
1502862015.6,286046996.7,N
1502862035.4,286046999.3,N
1502862055.3,286046998.8,N
1502862075.1,286046997.4,N
1502862076.0,286046997.4,N
1502862095.8,286046997.5,N
1502862115.7,286046997.7,N
1502862135.5,286046997.6,N
1502862155.3,286047000.6,N
1502862175.2,286047002.7,N
1502862195.9,286047001.6,N
1502862215.7,286047000.6,N
1502862235.5,286047000.8,N
1502862255.4,286047000.3,N
1502862275.2,286047000.1,N
1502862295.0,286046999.2,N
1502862295.9,286046999.2,N
1502862315.8,286046997.1,N
1502862335.6,286046997.7,N
1502862355.4,286046996.6,N
1502862375.3,286046999.8,N
1502862395.1,286046999.9,N
1502862415.8,286047000.9,N
1502862435.7,286046997.8,N
1502862455.5,286046999.3,N
1502862475.3,286046998.5,N
1502862495.2,286047000.7,N
1502862515.9,286046998.2,N
1502862535.7,286046995.0,P
1502862555.6,286046996.6,N
1502862575.4,286046998.9,N
1502862595.2,286046997.0,N
1502862615.1,286046998.7,N
1502862616.0,286046998.7,N
1502862635.8,286047002.7,N
1502862655.6,286047001.8,N
1502862675.5,286047000.5,N
1502862695.3,286046998.1,N
1502862715.1,286047000.8,N
1502862735.8,286047000.4,N
1502862755.7,286047000.7,N
1502862775.5,286046998.9,N
1502862795.3,286046997.2,N
1502862815.2,286046996.6,N
1502862835.0,286046999.5,N
1502862835.9,286046999.5,N
1502862855.7,286046999.0,N
1502862875.6,286046999.6,N
1502862895.4,286047000.3,N
1502862915.2,286047001.1,N
1502862935.1,286047000.7,N
1502862936.0,286047000.7,N
1502862955.8,286047000.9,N
1502862975.6,286046996.6,N
1502862995.5,286046997.1,N
1502863015.3,286046997.3,N
1502863035.1,286046997.7,N
1502863055.9,286046999.6,N
1502863075.7,286046999.0,N
1502863095.5,286046998.9,N
1502863115.3,286046997.3,N
1502863135.2,286046997.7,N
1502863155.0,286046997.4,N
1502863155.9,286046997.4,N
1502863175.7,286046996.6,N
1502863195.6,286046997.0,N
